{"data":{"norad_id":52771,"intl_designator":"2022-057AR","name":"OMNI-L2","alt_names":[],"object_type":"PAYLOAD","status":"ACTIVE","operator":null,"country":"US","launch_date":"2022-05-25","launch_site_code":"AFETR","launch_vehicle":null,"mission":null,"orbit_class":"UNKNOWN","rcs_meters":null,"size_class":null,"mass_kg":null,"dimensions":null,"purposes":[],"wikipedia_slug":null,"has_3d_model":false,"image_url":null,"decayed_at":null,"tle_current":{"epoch":"2026-05-25T03:44:52.596384Z","epoch_age_seconds":58080,"freshness":"FRESH","line1":"1 52771U 22057AR  26145.15616431  .00001113  00000+0  14876-3 0  9997","line2":"2 52771  97.4725 209.0620 0007778  50.5755 309.6146 14.81296868216981","mean_motion":14.81296868,"eccentricity":0.0007778,"inclination_deg":97.4725,"raan_deg":209.062,"arg_perigee_deg":50.5755,"mean_anomaly_deg":309.6146,"bstar":0.00014876,"rev_number":21698,"period_min":97.212114000095,"perigee_km":619.78631800357,"apogee_km":630.68076121499,"semimajor_km":7003.3705396093,"source":"CELESTRAK","updated_at":"2026-05-25T13:37:57.887877Z"}}}